University AP, Davis, CA, CA

4:18 PM PST on November 18, 2017 (GMT -0800)
University AP, Davis, CA

Weather History for KEDU - January, 2014

Change the Weather History Date:

Tuesday, January 14, 2014

  Actual Average (KSMF) Record (KSMF)
Temperature  
Mean Temperature 50 °F -  
Max Temperature 64 °F 53 °F 66 °F (2014)
Min Temperature 35 °F 39 °F 21 °F (2007)
Degree Days  
Heating Degree Days 16    
Moisture  
Dew Point 32 °F    
Average Humidity 57    
Maximum Humidity 87    
Minimum Humidity 30    
Precipitation  
Precipitation 0.00 in - - ()
Sea Level Pressure  
Sea Level Pressure 30.41 in    
Wind  
Wind Speed 2 mph (NE)    
Max Wind Speed 10 mph    
Max Gust Speed -    
Visibility 10 miles    
Events      
Averages and records for this station are not official NWS values.
T = Trace of Precipitation, MM = Missing Value Source: NWS Daily Summary

Daily Weather History Graph

Daily Weather History Graph

Search for Another Location

Airport or City:

Trip Planner

Search our weather history database for the weather conditions in past years. The results will help you decide how hot, cold, wet, or windy it might be!

Date:

Astronomy

Jan. 14, 2014 Rise Set
Actual Time 7:23 AM PST 5:09 PM PST
Civil Twilight 6:54 AM PST 5:38 PM PST
Nautical Twilight 6:21 AM PST 6:11 PM PST
Astronomical Twilight 5:50 AM PST 6:42 PM PST
Moon 4:18 PM PST (1/14) 6:02 AM PST (1/14)
Length of Visible Light 10h 43m
Length of Day
9h 45m
Waxing Gibbous, 98% of the Moon is Illuminated
Jan 14
Waxing Gibbous
Jan 15
Full
Jan 23
Last Quarter
Jan 30
New
Feb 6
First Quarter

Hourly Weather History & Observations

Time (PST) Temp. Windchill Dew Point Humidity Pressure Visibility Wind Dir Wind Speed Gust Speed Precip Events Conditions
12:00 AM 37.4 °F - 30.2 °F 75% 30.42 in 10.0 mi Calm Calm - N/A   Clear
12:20 AM 37.4 °F - 28.4 °F 70% 30.42 in 10.0 mi Calm Calm - N/A   Clear
12:40 AM 37.4 °F - 32.0 °F 81% 30.42 in 10.0 mi Calm Calm - N/A   Clear
1:00 AM 39.2 °F - 32.0 °F 75% 30.41 in 10.0 mi Calm Calm - N/A   Clear
1:20 AM 37.4 °F - 28.4 °F 70% 30.41 in 10.0 mi Calm Calm - N/A   Clear
1:40 AM 35.6 °F - 30.2 °F 81% 30.41 in 10.0 mi Calm Calm - N/A   Clear
2:00 AM 37.4 °F - 32.0 °F 81% 30.43 in 10.0 mi Calm Calm - N/A   Clear
2:20 AM 41.0 °F - 33.8 °F 76% 30.42 in 10.0 mi Calm Calm - N/A   Clear
2:40 AM 42.8 °F - 35.6 °F 76% 30.42 in 10.0 mi Calm Calm - N/A   Clear
3:00 AM 41.0 °F - 32.0 °F 70% 30.43 in 10.0 mi Calm Calm - N/A   Clear
3:20 AM 41.0 °F 39.0 °F 32.0 °F 70% 30.42 in 10.0 mi North 3.5 mph - N/A   Clear
3:40 AM 44.6 °F 40.7 °F 33.8 °F 66% 30.42 in 10.0 mi North 6.9 mph - N/A   Clear
4:00 AM 37.4 °F 33.8 °F 30.2 °F 75% 30.42 in 10.0 mi NNE 4.6 mph - N/A   Clear
4:20 AM 41.0 °F - 32.0 °F 70% 30.42 in 10.0 mi Calm Calm - N/A   Clear
4:40 AM 41.0 °F - 32.0 °F 70% 30.42 in 10.0 mi Calm Calm - N/A   Clear
5:00 AM 39.2 °F - 33.8 °F 81% 30.42 in 10.0 mi Calm Calm - N/A   Clear
5:20 AM 39.2 °F - 33.8 °F 81% 30.43 in 10.0 mi Calm Calm - N/A   Clear
5:40 AM 37.4 °F - 32.0 °F 81% 30.43 in 10.0 mi Calm Calm - N/A   Clear
6:00 AM 39.2 °F - 35.6 °F 87% 30.43 in 10.0 mi Calm Calm - N/A   Clear
6:20 AM 37.4 °F - 33.8 °F 87% 30.44 in 10.0 mi Calm Calm - N/A   Clear
6:40 AM 37.4 °F - 33.8 °F 87% 30.45 in 10.0 mi Calm Calm - N/A   Clear
7:00 AM 39.2 °F - 33.8 °F 81% 30.45 in 10.0 mi Calm Calm - N/A   Clear
7:20 AM 37.4 °F - 32.0 °F 81% 30.45 in 10.0 mi Calm Calm - N/A   Clear
7:40 AM 37.4 °F - 32.0 °F 81% 30.46 in 10.0 mi Calm Calm - N/A   Clear
8:00 AM 37.4 °F - 32.0 °F 81% 30.47 in 10.0 mi Calm Calm - N/A   Clear
8:20 AM 39.2 °F - 33.8 °F 81% 30.47 in 10.0 mi Calm Calm - N/A   Clear
8:40 AM 41.0 °F - 35.6 °F 81% 30.48 in 10.0 mi Calm Calm - N/A   Clear
9:00 AM 46.4 °F - 35.6 °F 66% 30.48 in 10.0 mi Calm Calm - N/A   Clear
9:20 AM 50.0 °F - 35.6 °F 58% 30.48 in 10.0 mi ENE 5.8 mph - N/A   Clear
9:40 AM 50.0 °F - 33.8 °F 54% 30.49 in 10.0 mi Calm Calm - N/A   Clear
10:00 AM 53.6 °F - 32.0 °F 44% 30.49 in 10.0 mi Calm Calm - N/A   Clear
10:20 AM 53.6 °F - 32.0 °F 44% 30.49 in 10.0 mi NE 8.1 mph - N/A   Clear
10:40 AM 55.4 °F - 32.0 °F 41% 30.49 in 10.0 mi Calm Calm - N/A   Clear
11:00 AM 57.2 °F - 30.2 °F 36% 30.48 in 10.0 mi NNE 9.2 mph - N/A   Clear
11:20 AM 57.2 °F - 32.0 °F 38% 30.47 in 10.0 mi NNE 10.4 mph - N/A   Clear
11:40 AM 59.0 °F - 32.0 °F 36% 30.46 in 10.0 mi NNE 9.2 mph - N/A   Clear
12:00 PM 59.0 °F - 30.2 °F 34% 30.44 in 10.0 mi NNE 10.4 mph - N/A   Clear
12:20 PM 60.8 °F - 30.2 °F 31% 30.43 in 10.0 mi NE 9.2 mph - N/A   Clear
12:40 PM 62.6 °F - 30.2 °F 30% 30.42 in 10.0 mi NNE 9.2 mph - N/A   Clear
1:00 PM 62.6 °F - 32.0 °F 32% 30.40 in 10.0 mi NE 8.1 mph - N/A   Clear
1:20 PM 62.6 °F - 32.0 °F 32% 30.40 in 10.0 mi NE 9.2 mph - N/A   Clear
1:40 PM 62.6 °F - 32.0 °F 32% 30.39 in 10.0 mi ENE 6.9 mph - N/A   Clear
2:00 PM 64.4 °F - 32.0 °F 30% 30.39 in 10.0 mi ENE 6.9 mph - N/A   Clear
2:20 PM 64.4 °F - 32.0 °F 30% 30.38 in 10.0 mi ENE 6.9 mph - N/A   Clear
2:40 PM 64.4 °F - 32.0 °F 30% 30.37 in 10.0 mi NE 5.8 mph - N/A   Clear
3:00 PM 64.4 °F - 32.0 °F 30% 30.37 in 10.0 mi ENE 5.8 mph - N/A   Clear
3:20 PM 64.4 °F - 32.0 °F 30% 30.37 in 10.0 mi NE 6.9 mph - N/A   Clear
3:40 PM 64.4 °F - 32.0 °F 30% 30.37 in 10.0 mi ENE 5.8 mph - N/A   Clear
4:00 PM 64.4 °F - 32.0 °F 30% 30.37 in 10.0 mi East 4.6 mph - N/A   Clear
4:20 PM 64.4 °F - 32.0 °F 30% 30.37 in 10.0 mi ENE 3.5 mph - N/A   Clear
4:40 PM 62.6 °F - 32.0 °F 32% 30.36 in 10.0 mi ESE 4.6 mph - N/A   Clear
5:00 PM 62.6 °F - 32.0 °F 32% 30.36 in 10.0 mi Calm Calm - N/A   Clear
5:20 PM 60.8 °F - 32.0 °F 34% 30.36 in 10.0 mi Calm Calm - N/A   Clear
5:40 PM 55.4 °F - 32.0 °F 41% 30.36 in 10.0 mi Calm Calm - N/A   Clear
6:00 PM 55.4 °F - 32.0 °F 41% 30.36 in 10.0 mi South 3.5 mph - N/A   Clear
6:20 PM 53.6 °F - 32.0 °F 44% 30.36 in 10.0 mi Calm Calm - N/A   Clear
6:40 PM 57.2 °F - 35.6 °F 44% 30.36 in 10.0 mi Calm Calm - N/A   Clear
7:00 PM 53.6 °F - 33.8 °F 47% 30.36 in 10.0 mi Calm Calm - N/A   Clear
7:20 PM 50.0 °F - 32.0 °F 50% 30.36 in 10.0 mi Calm Calm - N/A   Clear
7:40 PM 48.2 °F - 32.0 °F 54% 30.35 in 10.0 mi Calm Calm - N/A   Clear
8:00 PM 46.4 °F - 32.0 °F 57% 30.35 in 10.0 mi Calm Calm - N/A   Clear
8:20 PM 48.2 °F - 32.0 °F 54% 30.36 in 10.0 mi Calm Calm - N/A   Clear
8:40 PM 46.4 °F - 32.0 °F 57% 30.35 in 10.0 mi Calm Calm - N/A   Clear
9:00 PM 46.4 °F - 32.0 °F 57% 30.36 in 10.0 mi Calm Calm - N/A   Clear
9:20 PM 44.6 °F - 32.0 °F 61% 30.35 in 10.0 mi Calm Calm - N/A   Clear
9:40 PM 44.6 °F - 32.0 °F 61% 30.36 in 10.0 mi Calm Calm - N/A   Clear
10:00 PM 44.6 °F - 32.0 °F 61% 30.36 in 10.0 mi Calm Calm - N/A   Clear
10:20 PM 42.8 °F - 32.0 °F 66% 30.36 in 10.0 mi Calm Calm - N/A   Clear
10:40 PM 41.0 °F - 32.0 °F 70% 30.36 in 10.0 mi Calm Calm - N/A   Clear
11:00 PM 41.0 °F - 30.2 °F 65% 30.36 in 10.0 mi Calm Calm - N/A   Clear
11:20 PM 39.2 °F - 30.2 °F 70% 30.36 in 10.0 mi Calm Calm - N/A   Clear
11:40 PM 39.2 °F - 30.2 °F 70% 30.36 in 10.0 mi Calm Calm - N/A   Clear